Location: *
(43.0833°N, 13.0500°E)
Time: 10:10:05
(UTC+00:00)

PSLV R/B - Pass Details

Date: 15 November 2019
Orbit: 272 x 277 km, 41.0° (Epoch: 09 December)

Event Time Altitude Azimuth Distance (km) Brightness Sun altitude
Rises 16:23:30 0° 260° (W) 1,982 8.9 -7.5°
Reaches altitude 10° 16:25:30 10° 255° (WSW) 1,153 7.2 -7.8°
Maximum altitude 16:28:01 52° 177° (S) 371 3.1 -8.3°
Enters shadow 16:30:22 11° 100° (E) 1,083 4.8 -8.7°
